STARLINK-1405 (45702 NORAD) Tracking and Keplerian Element Data

This shows tracking and keplerian element data for the satellite.

Feedback or suggestion? Click here.




ElementValue
Catalog45702
NameSTARLINK-1405
Epoch Orbit183
Epoch Day218.91667824
Epoch Year2020
RAAN209.9766
Inclination52.9866
Eccentricity0.0001257
Argument of Perigee54.9723
Mean Anonmoly291.5361
Mean Motion15.66182491
Decay Rate-0.0055522
L11 45702U 20035AX 20218.91667824 -.00555220 00000-0 -56535-2 0 9991
L22 45702 52.9866 209.9766 0001257 54.9723 291.5361 15.66182491 1832

Live tracking and technical data element details for STARLINK-1405 (NORAD 45702). STARLINK-1405 can be tracked NOW for your location showing map with azimuth and elevation plus other details from your city location.

Track the satellite on the map from your city or location and see movement details for azimuth, elevation, latitude, longitude, range, height, and movement on the map or in text.







IsCatalogInMostPopularTable: catalog: 45702, numindb: 10
Update: records affected: 1



GetName: 45702 STARLINK-1405

Hit Count: updated at: Fri, 07 Aug 2020 23:47:40 GMT